Location: Bottens
(46.6171°N, 6.6605°E)
Time: 20:08:44
(UTC+00:00)

Meteor 2-3 Rocket - Pass Details

Date: 20 June 2021
Orbit: 842 x 885 km, 81.2° (Epoch: 31 July)

Event Time Altitude Azimuth Distance (km) Brightness Sun altitude
Exits shadow 01:31:26 15° 169° (S) 2,136 5.3 -15.2°
Maximum altitude 01:35:59 56° 95° (E) 1,001 4.2 -14.8°
Drops below altitude 10° 01:41:26 10° 19° (NNE) 2,473 7.5 -14.3°
Sets 01:43:54 0° 15° (NNE) 3,412 8.5 -14.1°
